Location: Detroit
(42.3310°N, 83.0460°W)
Time: 21:02:59
(UTC-05:00)

Tiros 1 despin weight - Pass Details

Date: 03 December 2023
Orbit: 581 x 624 km, 48.2° (Epoch: 02 March)

Event Time Altitude Azimuth Distance (km) Brightness Sun altitude
Rises 20:05:31 0° 255° (WSW) 2,795 ? -33.6°
Reaches altitude 10° 20:07:49 10° 260° (W) 1,894 ? -34.0°
Enters shadow 20:09:11 20° 265° (W) 1,382 ? -34.2°
